| time (UTC) | temp F | wind direction | speed knots | gust knots | rain 1hr in | rain 24hr in | rain mn in | humidity % | barometer mb |
| 20260506013029 | 77 | 345 | 2.6 | 10.4 | 0.00 | 0.00 | 0.00 | 30 | 1007.8 |
| 20260506011532 | 78 | 329 | 4.3 | 11.3 | 0.00 | 0.00 | 0.00 | 30 | 1007.7 |
| 20260506010030 | 77 | 319 | 2.6 | 9.6 | 0.00 | 0.00 | 0.00 | 31 | 1007.7 |
| 20260506004536 | 78 | 343 | 5.2 | 10.4 | 0.00 | 0.00 | 0.00 | 26 | 1007.6 |
| 20260506003038 | 78 | 346 | 4.3 | 10.4 | 0.00 | 0.00 | 0.00 | 27 | 1007.4 |
| 20260506001530 | 78 | 234 | 0.9 | 7.8 | 0.00 | 0.00 | 0.00 | 28 | 1007.3 |
| 20260506000030 | 80 | 285 | 2.6 | 13.0 | 0.00 | 0.00 | 0.00 | 25 | 1007.3 |
| 20260505234551 | 81 | 304 | 3.5 | 10.4 | 0.00 | 0.00 | 0.00 | 25 | 1007.4 |
| 20260505233031 | 81 | 313 | 6.1 | 13.0 | 0.00 | 0.00 | 0.00 | 24 | 1007.4 |
| 20260505231533 | 81 | 352 | 6.1 | 12.2 | 0.00 | 0.00 | 0.00 | 24 | 1007.4 |
| 20260505230039 | 81 | 263 | 4.3 | 13.9 | 0.00 | 0.00 | 0.00 | 25 | 1007.5 |
| 20260505224529 | 81 | 288 | 6.1 | 13.0 | 0.00 | 0.00 | 0.00 | 22 | 1007.6 |
| 20260505223030 | 81 | 5 | 4.3 | 11.3 | 0.00 | 0.00 | 0.00 | 25 | 1007.6 |
| 20260505221530 | 81 | 320 | 5.2 | 10.4 | 0.00 | 0.00 | 0.00 | 23 | 1007.7 |
| 20260505220038 | 81 | 273 | 2.6 | 7.8 | 0.00 | 0.00 | 0.00 | 26 | 1007.8 |
| 20260505214538 | 79 | 306 | 1.7 | 6.1 | 0.00 | 0.00 | 0.00 | 24 | 1008.1 |
| 20260505213030 | 78 | 57 | 0.9 | 5.2 | 0.00 | 0.00 | 0.00 | 25 | 1008.3 |
| 20260505211530 | 78 | 338 | 4.3 | 10.4 | 0.00 | 0.00 | 0.00 | 27 | 1008.5 |
| 20260505210030 | 78 | 44 | 0.0 | 6.1 | 0.00 | 0.00 | 0.00 | 23 | 1008.7 |
| 20260505204530 | 79 | 273 | 0.9 | 7.8 | 0.00 | 0.00 | 0.00 | 21 | 1008.7 |
| 20260505203029 | 80 | 338 | 1.7 | 7.0 | 0.00 | 0.00 | 0.00 | 24 | 1008.8 |
| 20260505201531 | 80 | 307 | 0.9 | 7.8 | 0.00 | 0.00 | 0.00 | 26 | 1008.8 |
| 20260505200029 | 80 | 263 | 1.7 | 7.8 | 0.00 | 0.00 | 0.00 | 25 | 1009.0 |
| 20260505194534 | 79 | 96 | 2.6 | 8.7 | 0.00 | 0.00 | 0.00 | 26 | 1009.1 |
| 20260505193038 | 78 | 44 | 3.5 | 8.7 | 0.00 | 0.00 | 0.00 | 26 | 1009.2 |
| 20260505191544 | 79 | 34 | 3.5 | 9.6 | 0.00 | 0.00 | 0.00 | 27 | 1009.4 |
| 20260505190032 | 79 | 62 | 1.7 | 5.2 | 0.00 | 0.00 | 0.00 | 27 | 1009.4 |
| 20260505184528 | 78 | 72 | 3.5 | 11.3 | 0.00 | 0.00 | 0.00 | 25 | 1009.3 |
| 20260505183030 | 78 | 23 | 2.6 | 10.4 | 0.00 | 0.00 | 0.00 | 27 | 1009.5 |
| 20260505181529 | 77 | 113 | 3.5 | 11.3 | 0.00 | 0.00 | 0.00 | 26 | 1009.6 |
| 20260505180044 | 77 | 60 | 4.3 | 13.0 | 0.00 | 0.00 | 0.00 | 26 | 1009.7 |
| 20260505174538 | 77 | 77 | 5.2 | 10.4 | 0.00 | 0.00 | 0.00 | 27 | 1009.6 |
| 20260505173028 | 76 | 17 | 6.1 | 14.8 | 0.00 | 0.00 | 0.00 | 27 | 1009.7 |
| 20260505171533 | 76 | 5 | 1.7 | 7.0 | 0.00 | 0.00 | 0.00 | 29 | 1009.8 |
| 20260505170031 | 74 | 190 | 2.6 | 7.0 | 0.00 | 0.00 | 0.00 | 38 | 1009.7 |
| 20260505164527 | 73 | 0 | 0.9 | 3.5 | 0.00 | 0.00 | 0.00 | 39 | 1009.7 |
| 20260505163028 | 72 | 0 | 1.7 | 5.2 | 0.00 | 0.00 | 0.00 | 40 | 1009.7 |
| 20260505161529 | 72 | 222 | 0.0 | 3.5 | 0.00 | 0.00 | 0.00 | 42 | 1009.6 |
| 20260505153031 | 71 | 163 | 0.9 | 5.2 | 0.00 | 0.00 | 0.00 | 43 | 1009.4 |
| 20260505151537 | 71 | 166 | 0.0 | 3.5 | 0.00 | 0.00 | 0.00 | 42 | 1009.3 |
| 20260505124529 | 58 | 5 | 1.7 | 3.5 | 0.00 | 0.00 | 0.00 | 54 | 1007.4 |
| 20260505123051 | 57 | 10 | 0.9 | 3.5 | 0.00 | 0.00 | 0.00 | 56 | 1007.3 |
| 20260505121528 | 57 | 360 | 0.9 | 1.7 | 0.00 | 0.00 | 0.00 | 56 | 1006.9 |
| 20260505120031 | 57 | 5 | 0.9 | 1.7 | 0.00 | 0.00 | 0.00 | 56 | 1006.8 |
| 20260505114530 | 57 | 57 | 0.0 | 1.7 | 0.00 | 0.00 | 0.00 | 55 | 1006.8 |
| 20260505113036 | 58 | 15 | 0.0 | 1.7 | 0.00 | 0.00 | 0.00 | 54 | 1006.6 |
| 20260505111548 | 58 | 348 | 0.9 | 2.6 | 0.00 | 0.00 | 0.00 | 53 | 1006.5 |
| 20260505101534 | 63 | 78 | 0.0 | 2.6 | 0.00 | 0.00 | 0.00 | 45 | 1006.1 |
| 20260505100034 | 64 | 0 | 0.9 | 5.2 | 0.00 | 0.00 | 0.00 | 43 | 1005.9 |
| 20260505094531 | 64 | 360 | 2.6 | 7.0 | 0.00 | 0.00 | 0.00 | 44 | 1005.8 |
| 20260505093031 | 64 | 12 | 2.6 | 7.8 | 0.00 | 0.00 | 0.00 | 43 | 1005.8 |
| 20260505091533 | 64 | 351 | 3.5 | 7.0 | 0.00 | 0.00 | 0.00 | 43 | 1005.8 |
| 20260505090037 | 63 | 320 | 2.6 | 6.1 | 0.00 | 0.00 | 0.00 | 45 | 1005.7 |
| 20260505084532 | 64 | 46 | 0.9 | 5.2 | 0.00 | 0.00 | 0.00 | 43 | 1005.8 |
| 20260505083035 | 66 | 0 | 0.0 | 2.6 | 0.00 | 0.00 | 0.00 | 39 | 1005.8 |
| 20260505081533 | 67 | 0 | 0.9 | 2.6 | 0.00 | 0.00 | 0.00 | 38 | 1005.9 |
| 20260505080035 | 68 | 306 | 0.9 | 2.6 | 0.00 | 0.00 | 0.00 | 35 | 1005.8 |
| 20260505074529 | 69 | 327 | 2.6 | 8.7 | 0.00 | 0.00 | 0.00 | 34 | 1005.7 |
| 20260505073033 | 69 | 13 | 3.5 | 10.4 | 0.00 | 0.00 | 0.00 | 33 | 1005.5 |
| 20260505071536 | 70 | 348 | 4.3 | 13.0 | 0.00 | 0.00 | 0.00 | 31 | 1005.5 |
| 20260505070033 | 69 | 360 | 5.2 | 16.5 | 0.00 | 0.00 | 0.00 | 31 | 1005.3 |
| 20260505064543 | 69 | 41 | 5.2 | 14.8 | 0.00 | 0.00 | 0.00 | 31 | 1005.2 |
| 20260505063030 | 70 | 347 | 7.0 | 13.0 | 0.00 | 0.00 | 0.00 | 31 | 1005.1 |
| 20260505061536 | 70 | 19 | 7.0 | 13.9 | 0.00 | 0.00 | 0.00 | 30 | 1005.2 |
| 20260505060031 | 70 | 350 | 7.8 | 12.2 | 0.00 | 0.00 | 0.00 | 29 | 1005.1 |
| 20260505054531 | 69 | 352 | 3.5 | 10.4 | 0.00 | 0.00 | 0.00 | 29 | 1005.1 |
| 20260505053029 | 69 | 9 | 2.6 | 7.8 | 0.00 | 0.00 | 0.00 | 30 | 1005.0 |
| 20260505051528 | 71 | 350 | 4.3 | 11.3 | 0.00 | 0.00 | 0.00 | 28 | 1005.0 |
| 20260505041533 | 72 | 352 | 4.3 | 10.4 | 0.00 | 0.00 | 0.00 | 29 | 1004.6 |
| 20260505040031 | 72 | 348 | 4.3 | 8.7 | 0.00 | 0.00 | 0.00 | 29 | 1004.3 |
| 20260505034533 | 72 | 329 | 4.3 | 8.7 | 0.00 | 0.00 | 0.00 | 31 | 1004.2 |
| 20260505033031 | 73 | 350 | 5.2 | 9.6 | 0.00 | 0.00 | 0.00 | 32 | 1004.1 |
| 20260505031530 | 73 | 346 | 5.2 | 8.7 | 0.00 | 0.00 | 0.00 | 32 | 1003.8 |
| 20260505030028 | 74 | 5 | 4.3 | 8.7 | 0.00 | 0.00 | 0.00 | 32 | 1003.6 |
| 20260505024539 | 76 | 344 | 5.2 | 9.6 | 0.00 | 0.00 | 0.00 | 30 | 1003.5 |
| 20260505023027 | 78 | 352 | 3.5 | 10.4 | 0.00 | 0.00 | 0.00 | 29 | 1003.3 |
| 20260505021537 | 79 | 316 | 6.1 | 9.6 | 0.00 | 0.00 | 0.00 | 27 | 1003.3 |
| 20260505020028 | 81 | 331 | 2.6 | 9.6 | 0.00 | 0.00 | 0.00 | 26 | 1003.1 |
| 20260505014533 | 82 | 319 | 4.3 | 8.7 | 0.00 | 0.00 | 0.00 | 24 | 1003.2 |